Find Starlink 6319

NORAD ID: 56532 Int'l Des: 2023-065 Owner: SPXS Country: US Constellation: starlink operational
LEOCIRCULAR

Live Position

Loading 3D Globe...

About Starlink 6319

Description loading...

Upcoming Passes

Passes for default location (London). Set your location on the main map for personalized predictions.

Altitude History

Loading altitude history...

Two-Line Element Set

1 56532U 23065AF 26104.38723977 .00000455 00000-0 26071-4 0 9990
2 56532 43.0016 356.6315 0000876 257.2061 102.8692 15.27576535162227
Epoch: Apr 14, 2026 • Age: 24 hours

Current Status

Altitude 482.5 km
Velocity 7.63 km/s
Sub-Earth Point 16.11°N, 31.41°E
Launch Date May 14, 2023
Age 2.9 years
Type internet

Technical Details

Classification Payload
Mass 305.00 kg
Dry Mass 290.00 kg
Total Mass 305.00 kg
Length 0.20 m
Diameter 2.80 m
Span 9.00 m
Shape Box + pan
Manufacturer SPXS
Bus Type Starlink
Phase Status In Orbit
Owner/State SPXS/US

Most Searched